Regional Weather Roundup
Issued by NWS Sioux Falls, SD

Home | Current Version | Previous Version | Graphics & Text | Print | Product List | Glossary On
Versions: 1 2 3 4 5 6 7 8 9 10 11 12 13 14 15 16 17 18 19 20 21 22 23 24 25 26 27 28 29 30 31 32 33 34 35 36 37 38 39 40 41 42 43 44 45 46 47 48 49 50
000
ASUS43 KFSD 051210
RWRFSD

WEATHER ROUNDUP FOR SE SOUTH DAKOTA/SW MINNESOTA/NW IOWA
NATIONAL WEATHER SERVICE SIOUX FALLS SD
700 AM CDT TUE MAY 05 2015

NOTE: "FAIR" INDICATES FEW OR NO CLOUDS BELOW 12,000 FEET WITH NO
SIGNIFICANT WEATHER AND OR OBSTRUCTIONS TO VISIBILITY.


SDZ038>040-050-052>070-051300-
SOUTHEAST SOUTH DAKOTA

CITY           SKY/WX    TMP DP  RH WIND       PRES   REMARKS
BROOKINGS      PTCLDY    48  28  46 E7        30.15S
CHAMBERLAIN    CLOUDY    46  39  75 E6        30.09F
6HR MIN TEMP:  43; 6HR MAX TEMP:  51;

HURON          MOCLDY    44  33  65 E7        30.12S
6HR MIN TEMP:  42; 6HR MAX TEMP:  54;

MADISON        FAIR      45  28  53 NE8       30.13S
MITCHELL       MOCLDY    46  34  62 CALM      30.11S
6HR MIN TEMP:  44; 6HR MAX TEMP:  52;

SIOUX FALLS    CLOUDY    46  35  65 NE3       30.11S
6HR MIN TEMP:  44; 6HR MAX TEMP:  51;

WINNER         CLOUDY    52  42  69 E8        30.07F
YANKTON        MOCLDY    54  37  54 NE8       30.08F
$$

MNZ071-072-080-081-089-090-097-098-051300-
SOUTHWEST MINNESOTA

CITY           SKY/WX    TMP DP  RH WIND       PRES   REMARKS
FAIRMONT       CLOUDY    54  34  47 NE6       30.13R
JACKSON        MOCLDY    54  32  43 NE9       30.13S
LUVERNE        CLOUDY    54  34  47 NE6       30.12S
MARSHALL       PTCLDY    39  21  48 NW3       30.15F
6HR MIN TEMP:  37; 6HR MAX TEMP:  52;

MONTEVIDEO     PTCLDY    45  28  53 E6        30.17S
PIPESTONE      MOCLDY    52  28  40 E9        30.13S
REDWOOD FALLS  PTCLDY    50  27  40 NE6       30.15F
TRACY          PTCLDY    46  29  51 CALM      30.15S
WINDOM         PTCLDY    54  30  40 NE9       30.14R
WORTHINGTON    CLOUDY    54  30  40 NE10      30.13S
$$

IAZ001>003-012>014-020>022-031-032-NEZ013-014-SDZ071-051300-
NORTHWEST IOWA

CITY           SKY/WX    TMP DP  RH WIND       PRES   REMARKS
CHEROKEE       DRIZZLE   53  48  82 NE3       30.09R
DENISON        CLOUDY    55  55 100 NE7       30.06R FOG
ESTHERVILLE    CLOUDY    49  49 100 NE7       30.12S
LE MARS        CLOUDY    57  41  54 NE8       30.09F
ORANGE CITY    CLOUDY    55  37  50 E7        30.09F
SHELDON        CLOUDY    55  37  50 NE9       30.09S
SIOUX CITY     CLOUDY    55  51  86 CALM      30.08R
6HR MIN TEMP:  54; 6HR MAX TEMP:  59; 6HR PCP:  0.04;

SPENCER        CLOUDY    54  46  74 E10       30.10S
6HR MIN TEMP:  51; 6HR MAX TEMP:  57;

STORM LAKE     CLOUDY    52  50  93 NE13      30.09R
$$

ABBREVIATIONS USED IN REMARKS
   TC - TEMPERATURE IN CELSIUS
  WCI - WIND CHILL INDEX
   HX - HEAT INDEX
  VSB - VISIBILITY




USA.gov is the U.S. government's official web portal to all federal, state and local government web resources and services.